Weather History for KIRS - August, 2013

Change the Weather History Date:

Wednesday, August 28, 2013

  Actual Average (KHAI) Record (KHAI)
Temperature  
Mean Temperature 76 °F -  
Max Temperature 82 °F 81 °F 95 °F (1948)
Min Temperature 69 °F 59 °F 39 °F (1982)
Cooling Degree Days 10    
Growing Degree Days 26 (Base 50)    
Moisture  
Dew Point 71 °F    
Average Humidity 81    
Maximum Humidity 100    
Minimum Humidity 70    
Precipitation  
Precipitation 0.00 in - - ()
Sea Level Pressure  
Sea Level Pressure 29.93 in    
Wind  
Wind Speed 7 mph (NNW)    
Max Wind Speed 13 mph    
Max Gust Speed 17 mph    
Visibility 9 miles    
Events      
Averages and records for this station are not official NWS values.
T = Trace of Precipitation, MM = Missing Value Source: NWS Daily Summary

Daily Weather History Graph

Daily Weather History Graph

Search for Another Location

Airport or City:

Trip Planner

Search our weather history database for the weather conditions in past years. The results will help you decide how hot, cold, wet, or windy it might be!

Date:

Astronomy

Aug. 28, 2013 Rise Set
Actual Time 7:03 AM EDT 8:21 PM EDT
Civil Twilight 6:34 AM EDT 8:50 PM EDT
Nautical Twilight 6:00 AM EDT 9:24 PM EDT
Astronomical Twilight 5:23 AM EDT 10:01 PM EDT
Moon 12:08 AM EDT (8/28) 3:00 PM EDT (8/28)
Length of Visible Light 14h 15m
Length of Day
13h 17m
Waning Gibbous, 47% of the Moon is Illuminated
Aug 28
Waning Gibbous
Sep 5
New
Sep 12
First Quarter
Sep 19
Full
Sep 26
Last Quarter

Hourly Weather History & Observations

Time (EDT) Temp. Heat Index Dew Point Humidity Pressure Visibility Wind Dir Wind Speed Gust Speed Precip Events Conditions
12:15 AM 80.6 °F 84.6 °F 71.6 °F 74% 29.89 in 10.0 mi WSW 5.8 mph - N/A   Clear
12:35 AM 78.8 °F - 71.6 °F 78% 29.88 in 10.0 mi SW 8.1 mph - N/A   Clear
1:15 AM 77.0 °F - 71.6 °F 83% 29.86 in 10.0 mi SSW 5.8 mph - N/A   Clear
1:35 AM 77.0 °F - 71.6 °F 83% 29.86 in 10.0 mi SW 9.2 mph - N/A   Scattered Clouds
1:54 AM 77.0 °F - 71.6 °F 83% 29.85 in 10.0 mi SW 8.1 mph - N/A   Mostly Cloudy
2:15 AM 78.8 °F - 69.8 °F 74% 29.85 in 10.0 mi SW 8.1 mph - N/A   Scattered Clouds
2:54 AM 78.8 °F - 69.8 °F 74% 29.85 in 10.0 mi WSW 8.1 mph - N/A   Clear
3:15 AM 78.8 °F - 69.8 °F 74% 29.85 in 10.0 mi WSW 8.1 mph - N/A   Clear
3:34 AM 78.8 °F - 69.8 °F 74% 29.86 in 10.0 mi WSW 5.8 mph - N/A   Clear
3:54 AM 77.0 °F - 69.8 °F 78% 29.87 in 10.0 mi WSW 5.8 mph - N/A   Mostly Cloudy
4:15 AM 77.0 °F - 69.8 °F 78% 29.86 in 10.0 mi WSW 4.6 mph - N/A   Scattered Clouds
4:34 AM 75.2 °F - 68.0 °F 78% 29.87 in 10.0 mi SW 4.6 mph - N/A   Clear
4:55 AM 75.2 °F - 68.0 °F 78% 29.86 in 10.0 mi WSW 5.8 mph - N/A   Clear
5:15 AM 75.2 °F - 68.0 °F 78% 29.86 in 10.0 mi WSW 5.8 mph - N/A   Clear
5:34 AM 75.2 °F - 68.0 °F 78% 29.85 in 10.0 mi WSW 5.8 mph - N/A   Clear
5:55 AM 73.4 °F - 68.0 °F 83% 29.86 in 10.0 mi WSW 5.8 mph - N/A   Clear
6:15 AM 75.2 °F - 66.2 °F 73% 29.86 in 10.0 mi WSW 6.9 mph - N/A   Clear
6:34 AM 75.2 °F - 66.2 °F 73% 29.86 in 10.0 mi WSW 6.9 mph - N/A   Clear
6:55 AM 75.2 °F - 66.2 °F 73% 29.86 in 10.0 mi WSW 5.8 mph - N/A   Clear
7:14 AM 75.2 °F - 66.2 °F 73% 29.86 in 10.0 mi West 6.9 mph - N/A   Clear
7:35 AM 75.2 °F - 66.2 °F 73% 29.86 in 10.0 mi West 9.2 mph - N/A   Clear
7:55 AM 75.2 °F - 68.0 °F 78% 29.87 in 10.0 mi West 9.2 mph - N/A   Clear
8:14 AM 75.2 °F - 68.0 °F 78% 29.88 in 10.0 mi West 6.9 mph - N/A   Clear
8:35 AM 75.2 °F - 68.0 °F 78% 29.88 in 10.0 mi WNW 6.9 mph - N/A   Clear
8:55 AM 77.0 °F - 69.8 °F 78% 29.89 in 10.0 mi NW 6.9 mph - N/A   Clear
9:14 AM 77.0 °F - 69.8 °F 78% 29.89 in 10.0 mi NW 8.1 mph - N/A   Clear
9:35 AM 78.8 °F - 71.6 °F 78% 29.89 in 10.0 mi NW 9.2 mph - N/A   Scattered Clouds
9:55 AM 77.0 °F - 71.6 °F 83% 29.90 in 10.0 mi NNW 8.1 mph - N/A   Scattered Clouds
10:14 AM 75.2 °F - 71.6 °F 89% 29.91 in 7.0 mi NNW 9.2 mph - N/A   Mostly Cloudy
10:35 AM 75.2 °F - 71.6 °F 89% 29.92 in 7.0 mi North 6.9 mph - N/A   Mostly Cloudy
10:55 AM 75.2 °F - 71.6 °F 89% 29.93 in 7.0 mi North 8.1 mph - N/A   Mostly Cloudy
11:14 AM 75.2 °F - 73.4 °F 94% 29.93 in 5.0 mi NNW 3.5 mph - N/A   Scattered Clouds
11:35 AM 77.0 °F - 73.4 °F 89% 29.92 in 7.0 mi NW 4.6 mph - N/A   Scattered Clouds
11:55 AM 78.8 °F - 73.4 °F 83% 29.92 in 7.0 mi NNW 5.8 mph - N/A   Scattered Clouds
12:14 PM 78.8 °F - 73.4 °F 83% 29.93 in 7.0 mi NNW 8.1 mph - N/A   Scattered Clouds
12:35 PM 78.8 °F - 73.4 °F 83% 29.93 in 7.0 mi NNW 5.8 mph - N/A   Scattered Clouds
12:55 PM 80.6 °F 85.4 °F 73.4 °F 79% 29.93 in 7.0 mi NNW 6.9 mph - N/A   Scattered Clouds
1:14 PM 80.6 °F 85.4 °F 73.4 °F 79% 29.93 in 10.0 mi North 8.1 mph - N/A   Scattered Clouds
1:34 PM 80.6 °F 85.4 °F 73.4 °F 79% 29.93 in 10.0 mi NW 6.9 mph - N/A   Scattered Clouds
1:55 PM 82.4 °F 88.2 °F 73.4 °F 74% 29.94 in 10.0 mi North 6.9 mph - N/A   Scattered Clouds
2:15 PM 82.4 °F 88.2 °F 73.4 °F 74% 29.94 in 10.0 mi North 9.2 mph - N/A   Mostly Cloudy
2:34 PM 80.6 °F 85.4 °F 73.4 °F 79% 29.94 in 7.0 mi North 9.2 mph - N/A   Mostly Cloudy
2:54 PM 80.6 °F 85.4 °F 73.4 °F 79% 29.95 in 10.0 mi North 9.2 mph - N/A   Mostly Cloudy
3:15 PM 80.6 °F 85.4 °F 73.4 °F 79% 29.95 in 7.0 mi North 4.6 mph - N/A   Scattered Clouds
3:34 PM 80.6 °F 85.4 °F 73.4 °F 79% 29.96 in 10.0 mi North 3.5 mph - N/A   Mostly Cloudy
3:54 PM 80.6 °F 85.4 °F 73.4 °F 79% 29.95 in 7.0 mi NE 4.6 mph 17.3 mph N/A   Scattered Clouds
4:15 PM 82.4 °F 87.2 °F 71.6 °F 70% 29.95 in 10.0 mi NE 9.2 mph - N/A   Scattered Clouds
4:34 PM 80.6 °F 84.6 °F 71.6 °F 74% 29.95 in 10.0 mi North 10.4 mph - N/A   Scattered Clouds
4:55 PM 80.6 °F 85.4 °F 73.4 °F 79% 29.96 in 10.0 mi NNE 6.9 mph - N/A   Clear
5:14 PM 80.6 °F 84.6 °F 71.6 °F 74% 29.97 in 10.0 mi NE 12.7 mph - N/A   Scattered Clouds
5:34 PM 80.6 °F 84.6 °F 71.6 °F 74% 29.97 in 10.0 mi North 11.5 mph - N/A   Scattered Clouds
5:55 PM 80.6 °F 84.6 °F 71.6 °F 74% 29.97 in 10.0 mi North 11.5 mph - N/A   Clear
6:14 PM 80.6 °F 84.6 °F 71.6 °F 74% 29.97 in 10.0 mi NNE 9.2 mph - N/A   Clear
6:34 PM 78.8 °F - 71.6 °F 78% 29.97 in 10.0 mi NNE 5.8 mph - N/A   Clear
6:55 PM 78.8 °F - 71.6 °F 78% 29.98 in 10.0 mi NNE 10.4 mph - N/A   Clear
7:14 PM 77.0 °F - 71.6 °F 83% 29.98 in 10.0 mi NNE 8.1 mph - N/A   Clear
7:34 PM 77.0 °F - 71.6 °F 83% 29.98 in 10.0 mi NNE 6.9 mph - N/A   Clear
7:55 PM 75.2 °F - 71.6 °F 89% 29.98 in 10.0 mi North 5.8 mph - N/A   Clear
8:14 PM 75.2 °F - 71.6 °F 89% 29.99 in 10.0 mi NNE 6.9 mph - N/A   Clear
8:34 PM 73.4 °F - 71.6 °F 94% 29.99 in 10.0 mi North 5.8 mph - N/A   Clear
8:55 PM 73.4 °F - 69.8 °F 88% 29.99 in 10.0 mi NNE 5.8 mph - N/A   Clear
9:14 PM 73.4 °F - 69.8 °F 88% 30.01 in 10.0 mi North 5.8 mph - N/A   Clear
9:34 PM 71.6 °F - 69.8 °F 94% 30.01 in 10.0 mi North 5.8 mph - N/A   Clear
9:55 PM 71.6 °F - 69.8 °F 94% 30.02 in 10.0 mi NNE 5.8 mph - N/A   Clear
10:14 PM 71.6 °F - 69.8 °F 94% 30.02 in 10.0 mi North 4.6 mph - N/A   Clear
10:34 PM 71.6 °F - 69.8 °F 94% 30.03 in 10.0 mi NNE 4.6 mph - N/A   Clear
10:55 PM 71.6 °F - 69.8 °F 94% 30.03 in 10.0 mi NNE 4.6 mph - N/A   Clear
11:14 PM 71.6 °F - 69.8 °F 94% 30.03 in 10.0 mi NNE 4.6 mph - N/A   Clear
11:34 PM 69.8 °F - 69.8 °F 100% 30.03 in 7.0 mi North 4.6 mph - N/A   Clear
11:55 PM 69.8 °F - 69.8 °F 100% 30.04 in 7.0 mi North 4.6 mph - N/A   Clear